Location: Poughquag
(41.6090°N, 73.6820°W)
Time: 01:32:51
(UTC-05:00)

Transit 2A Rocket - All Passes

Search period start: 29 November 2023 00:00
Search period end: 09 December 2023 00:00
Orbit: 593 x 903 km, 66.7° (Epoch: 28 November)

Date Brightness Start Highest point End Pass type
(mag) Time Alt. Az. Time Alt. Az. Time Alt. Az.
29 Nov - 06:20:20 10° N 06:23:51 23° NE 06:27:27 10° ESE visible
29 Nov - 08:02:20 10° NW 08:06:22 38° WSW 08:10:36 10° S daylight
29 Nov - 20:55:54 10° SE 20:58:48 16° ESE 21:01:34 10° ENE night (unlit)
29 Nov - 22:36:07 10° SW 22:40:52 57° WNW 22:45:18 10° NNE night (unlit)
30 Nov - 05:37:32 10° N 05:39:54 14° NE 05:42:18 10° ENE visible
30 Nov - 07:18:29 10° NNW 07:22:50 75° WSW 07:27:24 10° SSE daylight
30 Nov - 21:52:22 10° SSW 21:57:13 77° ESE 22:01:44 10° NNE night (unlit)
30 Nov - 23:37:31 10° W 23:40:09 15° NW 23:42:42 10° N night (unlit)
01 Dec - 06:34:54 10° NNW 06:39:12 57° ENE 06:43:40 10° SE daylight
01 Dec - 08:18:49 10° WNW 08:21:12 14° WSW 08:23:38 10° SW daylight
01 Dec - 21:09:07 10° S 21:13:39 40° ESE 21:17:54 10° NE night (unlit)
01 Dec - 22:52:23 10° WSW 22:56:12 24° NW 22:59:52 10° N night (unlit)
02 Dec - 05:51:33 10° N 05:55:26 31° NE 05:59:28 10° ESE visible
02 Dec - 07:34:04 10° NW 07:37:47 27° WSW 07:41:40 10° S daylight
02 Dec - 20:26:31 10° SSE 20:30:11 22° ESE 20:33:40 10° ENE night (unlit)
02 Dec - 22:07:53 10° SW 22:12:24 41° NW 22:16:39 10° NNE night (unlit)
03 Dec - 05:08:30 10° N 05:11:34 18° NE 05:14:42 10° E visible
03 Dec - 06:50:02 10° NW 06:54:17 53° WSW 06:58:45 10° SSE daylight
03 Dec - 19:45:22 10° ESE 19:46:47 11° ESE 19:48:12 10° E night (unlit)
03 Dec - 21:23:54 10° SW 21:28:42 77° WNW 21:33:12 10° NNE night (unlit)
03 Dec - 23:10:22 10° WNW 23:11:51 11° NW 23:13:19 10° NNW night (unlit)
04 Dec - 04:26:12 10° NNE 04:27:33 11° NE 04:28:53 10° ENE visible
04 Dec - 06:06:19 10° NNW 06:10:41 80° ENE 06:15:17 10° SSE visible
04 Dec - 20:40:23 10° SSW 20:45:06 56° ESE 20:49:30 10° NE night (unlit)
04 Dec - 22:24:34 10° W 22:27:50 19° NW 22:30:59 10° N night (unlit)
05 Dec - 05:22:50 10° NNW 05:26:59 42° NE 05:31:19 10° SE visible
05 Dec - 07:05:57 10° WNW 07:09:09 20° WSW 07:12:30 10° SSW daylight
05 Dec - 19:57:24 10° S 20:01:34 29° ESE 20:05:29 10° NE night (unlit)
05 Dec - 21:39:46 10° WSW 21:43:57 31° NW 21:47:55 10° N night (unlit)
06 Dec - 04:39:36 10° N 04:43:11 24° NE 04:46:52 10° ESE visible
06 Dec - 06:21:38 10° NW 06:25:41 37° WSW 06:29:58 10° S visible
06 Dec - 19:15:16 10° SE 19:18:08 16° ESE 19:20:52 10° ENE night (unlit)
06 Dec - 20:55:32 10° SW 21:00:12 55° WNW 21:04:34 10° NNE night (unlit)
07 Dec - 03:56:46 10° N 03:59:14 15° NE 04:01:44 10° ENE visible
07 Dec - 05:37:46 10° NW 05:42:08 74° WSW 05:46:46 10° SSE visible
07 Dec - 20:11:45 10° SSW 20:16:32 79° ESE 20:21:00 10° NNE night (unlit)
07 Dec - 21:56:59 10° WNW 21:59:28 14° NW 22:01:55 10° N night (unlit)
08 Dec - 04:54:10 10° NNW 04:58:29 58° ENE 05:03:02 10° SE visible
08 Dec - 06:38:06 10° WNW 06:40:30 14° WSW 06:42:57 10° SW visible
08 Dec - 19:28:29 10° S 19:32:57 41° ESE 19:37:10 10° NE visible
08 Dec - 21:11:46 10° WSW 21:15:31 23° NW 21:19:06 10° N night (unlit)
